Location: Paris
(48.6709°N, 2.3750°E)
Time: 13:10:28
(UTC+02:00)

NOAA 18 - Pass Details

Date: 30 June 2022
Orbit: 839 x 860 km, 98.9° (Epoch: 11 August)

Event Time Altitude Azimuth Distance (km) Brightness Sun altitude
Exits shadow 01:03:03 - 227° (SW) 2,930 7.7 -17.2°
Reaches altitude 10° 01:05:01 10° 243° (WSW) 2,481 7.5 -17.3°
Maximum altitude 01:07:50 14° 274° (W) 2,210 7.5 -17.4°
Drops below altitude 10° 01:10:39 10° 305° (NW) 2,497 8.3 -17.5°
Sets 01:14:21 0° 330° (NNW) 3,444 9.7 -17.6°
